Location: Treviso
(45.6669°N, 12.2430°E)
Time: 00:40:14
(UTC+02:00)

ISS - Pass Details

Date: 28 May 2017
Orbit: 402 x 408 km, 51.6° (Epoch: 30 May)

Event Time Altitude Azimuth Distance (km) Brightness Sun altitude
Rises 21:35:36 0° 249° (WSW) 2,327 0.4 -7.2°
Reaches altitude 10° 21:37:41 10° 252° (WSW) 1,468 -0.6 -7.5°
Maximum altitude 21:40:57 64° 335° (NNW) 455 -3.3 -7.9°
Drops below altitude 10° 21:44:14 10° 58° (ENE) 1,472 -1.1 -8.4°
Sets 21:46:21 0° 62° (ENE) 2,334 -0.2 -8.6°
